QPF
0.00 0.00 0.00 0.00 0.00 0.00 0.00 0.00 0.00 0.00 0.00 0.00 0.00 0.00 0.00 0.00 0.00 0.02 0.00 0.00 0.00 0.00 0.00 0.00 0.01 0.01 0.01 0.02 0.02 0.02 0.02 0.02 0.03 0.03 0.03 0.02 0.01 0.00 0.00 0.00 0.00 0.00 0.01 0.01 0.01 0.01 0.00 0.00 0.00
0.00 0.00 0.00 0.00 0.00 0.00 0.00 0.00 0.00 0.00 0.00 0.00 0.00 0.00 0.00 0.00 0.00 0.00 0.00 0.00 0.00 0.00 0.00 0.00 0.00 0.00 0.01 0.01 0.01 0.02 0.03 0.03 0.04 0.03 0.03 0.02 0.01 0.00 0.01 0.00 0.01 0.01 0.01 0.01 0.01 0.00 0.00 0.00 0.00
0.00 0.00 0.00 0.00 0.00 0.00 0.00 0.00 0.00 0.00 0.00 0.00 0.00 0.00 0.00 0.00 0.00 0.00 0.00 0.00 0.00 0.00 0.00 0.00 0.00 0.00 0.00 0.01 0.01 0.02 0.02 0.03 0.02 0.01 0.01 0.01 0.00 0.00 0.01 0.01 0.01 0.01 0.01 0.01 0.01 0.00 0.00 0.00 0.00
0.00 0.00 0.00 0.00 0.00 0.00 0.00 0.00 0.00 0.00 0.00 0.00 0.00 0.00 0.00 0.00 0.00 0.00 0.00 0.00 0.00 0.00 0.00 0.00 0.00 0.00 0.00 0.01 0.01 0.01 0.02 0.02 0.02 0.02 0.01 0.01 0.00 0.00 0.01 0.01 0.01 0.00 0.01 0.01 0.00 0.00 0.00 0.00 0.00
0.00 0.00 0.00 0.00 0.00 0.00 0.00 0.00 0.00 0.00 0.00 0.00 0.00 0.00 0.00 0.00 0.00 0.00 0.00 0.00 0.00 0.00 0.00 0.00 0.00 0.00 0.00 0.01 0.02 0.02 0.02 0.01 0.01 0.01 0.01 0.01 0.00 0.00 0.00 0.01 0.00 0.00 0.00 0.00 0.00 0.00 0.00 0.00 0.00
0.00 0.00 0.00 0.00 0.00 0.00 0.00 0.00 0.00 0.00 0.00 0.00 0.00 0.00 0.00 0.00 0.00 0.00 0.00 0.00 0.00 0.00 0.00 0.00 0.00 0.00 0.00 0.01 0.01 0.01 0.01 0.01 0.01 0.01 0.01 0.01 0.00 0.00 0.00 0.00 0.00 0.00 0.00 0.00 0.00 0.00 0.00 0.00 0.00
0.01 0.01 0.00 0.00 0.00 0.00 0.00 0.00 0.00 0.00 0.00 0.00 0.00 0.00 0.00 0.00 0.00 0.00 0.00 0.00 0.00 0.00 0.00 0.00 0.00 0.00 0.00 0.01 0.01 0.01 0.01 0.01 0.01 0.01 0.01 0.00 0.00 0.00 0.00 0.00 0.00 0.00 0.00 0.00 0.00 0.00 0.00 0.00 0.00
0.01 0.01 0.01 0.00 0.00 0.00 0.00 0.00 0.00 0.00 0.00 0.00 0.00 0.00 0.00 0.00 0.00 0.00 0.00 0.00 0.00 0.00 0.00 0.00 0.01 0.00 0.01 0.01 0.00 0.00 0.00 0.00 0.00 0.00 0.00 0.00 0.00 0.00 0.00 0.00 0.00 0.00 0.00 0.00 0.00 0.00 0.00 0.00 0.00
0.00 0.01 0.01 0.00 0.00 0.00 0.00 0.00 0.00 0.00 0.00 0.00 0.00 0.00 0.00 0.00 0.00 0.00 0.00 0.00 0.00 0.00 0.00 0.00 0.01 0.01 0.01 0.01 0.00 0.00 0.00 0.00 0.00 0.00 0.00 0.00 0.00 0.00 0.00 0.00 0.00 0.00 0.00 0.00 0.00 0.00 0.00 0.00 0.00
0.01 0.01 0.00 0.00 0.00 0.00 0.00 0.00 0.00 0.00 0.00 0.00 0.00 0.00 0.00 0.00 0.00 0.00 0.00 0.00 0.00 0.00 0.00 0.00 0.00 0.01 0.01 0.01 0.01 0.01 0.01 0.01 0.01 0.01 0.00 0.00 0.00 0.01 0.00 0.00 0.00 0.00 0.00 0.00 0.00 0.00 0.00 0.00 0.00
0.01 0.00 0.00 0.00 0.00 0.00 0.00 0.00 0.00 0.00 0.00 0.00 0.00 0.00 0.00 0.00 0.00 0.00 0.00 0.00 0.00 0.00 0.00 0.00 0.00 0.00 0.01 0.01 0.01 0.01 0.01 0.01 0.01 0.01 0.00 0.00 0.00 0.00 0.00 0.00 0.00 0.00 0.00 0.00 0.00 0.00 0.00 0.00 0.00
0.02 0.00 0.00 0.00 0.00 0.00 0.00 0.00 0.00 0.00 0.00 0.00 0.00 0.00 0.00 0.00 0.00 0.00 0.00 0.00 0.00 0.00 0.00 0.00 0.00 0.00 0.00 0.00 0.00 0.01 0.01 0.01 0.01 0.01 0.00 0.00 0.00 0.00 0.00 0.00 0.00 0.00 0.00 0.00 0.00 0.00 0.00 0.00 0.00
0.02 0.01 0.00 0.00 0.00 0.00 0.00 0.00 0.00 0.00 0.00 0.00 0.00 0.00 0.00 0.00 0.00 0.00 0.00 0.00 0.00 0.00 0.00 0.00 0.00 0.00 0.00 0.00 0.00 0.00 0.00 0.00 0.00 0.00 0.00 0.00 0.00 0.00 0.00 0.00 0.00 0.00 0.00 0.00 0.00 0.00 0.00 0.00 0.00
0.02 0.01 0.01 0.00 0.00 0.00 0.00 0.00 0.00 0.00 0.00 0.00 0.00 0.00 0.00 0.00 0.00 0.00 0.00 0.00 0.00 0.00 0.00 0.00 0.00 0.00 0.00 0.00 0.00 0.00 0.00 0.00 0.00 0.00 0.00 0.00 0.00 0.00 0.00 0.00 0.00 0.00 0.00 0.00 0.00 0.00 0.00 0.00 0.00
0.03 0.03 0.02 0.01 0.00 0.00 0.00 0.00 0.00 0.00 0.00 0.00 0.00 0.00 0.00 0.00 0.00 0.00 0.00 0.00 0.00 0.00 0.00 0.00 0.00 0.00 0.00 0.00 0.00 0.00 0.00 0.00 0.00 0.00 0.00 0.00 0.00 0.00 0.00 0.00 0.00 0.00 0.00 0.00 0.00 0.00 0.00 0.00 0.00
0.06 0.06 0.03 0.01 0.00 0.00 0.00 0.00 0.00 0.00 0.00 0.00 0.00 0.00 0.00 0.00 0.00 0.00 0.00 0.00 0.00 0.00 0.00 0.00 0.00 0.00 0.00 0.00 0.00 0.00 0.00 0.00 0.00 0.00 0.00 0.00 0.00 0.00 0.00 0.00 0.00 0.00 0.00 0.00 0.00 0.00 0.00 0.00 0.00
0.09 0.06 0.03 0.01 0.00 0.01 0.01 0.00 0.00 0.00 0.00 0.00 0.00 0.00 0.00 0.00 0.00 0.00 0.00 0.00 0.00 0.00 0.00 0.00 0.00 0.00 0.00 0.00 0.00 0.00 0.00 0.00 0.00 0.00 0.00 0.00 0.00 0.00 0.00 0.00 0.00 0.00 0.00 0.00 0.00 0.00 0.00 0.00 0.00
0.05 0.02 0.01 0.00 0.00 0.01 0.01 0.00 0.00 0.00 0.00 0.00 0.00 0.00 0.00 0.00 0.00 0.00 0.00 0.00 0.00 0.00 0.00 0.00 0.00 0.00 0.00 0.00 0.00 0.00 0.00 0.00 0.00 0.00 0.00 0.00 0.00 0.00 0.00 0.00 0.00 0.00 0.00 0.00 0.00 0.00 0.00 0.00 0.00
0.02 0.01 0.01 0.00 0.00 0.01 0.00 0.00 0.00 0.00 0.00 0.00 0.00 0.00 0.00 0.00 0.00 0.00 0.00 0.00 0.00 0.00 0.00 0.00 0.00 0.00 0.00 0.00 0.00 0.00 0.00 0.00 0.00 0.00 0.00 0.00 0.00 0.00 0.00 0.00 0.00 0.00 0.00 0.00 0.00 0.00 0.00 0.00 0.00
0.03 0.02 0.01 0.01 0.01 0.01 0.01 0.00 0.00 0.00 0.00 0.00 0.00 0.00 0.00 0.00 0.00 0.00 0.00 0.00 0.00 0.00 0.00 0.00 0.00 0.00 0.00 0.00 0.00 0.00 0.00 0.00 0.00 0.00 0.00 0.00 0.00 0.00 0.00 0.00 0.00 0.00 0.00 0.00 0.00 0.00 0.00 0.00 0.00
0.04 0.02 0.01 0.01 0.01 0.02 0.02 0.01 0.00 0.00 0.00 0.00 0.00 0.00 0.00 0.00 0.00 0.00 0.00 0.00 0.00 0.00 0.00 0.00 0.00 0.00 0.00 0.00 0.00 0.00 0.00 0.00 0.00 0.00 0.00 0.00 0.00 0.00 0.00 0.00 0.00 0.00 0.00 0.00 0.00 0.00 0.00 0.00 0.00
0.05 0.02 0.02 0.03 0.04 0.03 0.02 0.02 0.01 0.00 0.00 0.00 0.00 0.00 0.00 0.00 0.00 0.00 0.00 0.00 0.00 0.00 0.00 0.00 0.00 0.00 0.00 0.00 0.00 0.00 0.00 0.00 0.00 0.00 0.00 0.00 0.00 0.00 0.00 0.00 0.00 0.00 0.00 0.00 0.00 0.00 0.00 0.00 0.00
0.05 0.03 0.04 0.05 0.06 0.06 0.04 0.03 0.01 0.00 0.00 0.00 0.00 0.00 0.00 0.00 0.00 0.00 0.00 0.00 0.00 0.00 0.00 0.00 0.00 0.00 0.00 0.00 0.00 0.00 0.00 0.00 0.00 0.00 0.00 0.00 0.00 0.00 0.00 0.00 0.00 0.00 0.00 0.00 0.00 0.00 0.00 0.00 0.00
0.07 0.07 0.09 0.11 0.14 0.15 0.04 0.02 0.01 0.00 0.00 0.00 0.00 0.00 0.00 0.00 0.00 0.00 0.00 0.00 0.00 0.00 0.00 0.00 0.00 0.00 0.00 0.00 0.00 0.00 0.00 0.00 0.00 0.00 0.00 0.00 0.00 0.00 0.00 0.00 0.00 0.00 0.00 0.00 0.00 0.00 0.00 0.00 0.00
0.12 0.14 0.21 0.25 0.26 0.17 0.03 0.01 0.01 0.00 0.00 0.00 0.00 0.00 0.00 0.00 0.00 0.00 0.00 0.00 0.00 0.00 0.00 0.00 0.00 0.00 0.00 0.00 0.00 0.00 0.00 0.00 0.00 0.00 0.00 0.00 0.00 0.00 0.00 0.00 0.00 0.00 0.00 0.00 0.00 0.00 0.00 0.00 0.00
0.08 0.10 0.15 0.16 0.11 0.04 0.01 0.01 0.00 0.00 0.00 0.00 0.00 0.00 0.00 0.00 0.00 0.00 0.00 0.00 0.00 0.00 0.00 0.00 0.00 0.00 0.00 0.00 0.00 0.00 0.00 0.00 0.00 0.00 0.00 0.00 0.00 0.00 0.00 0.00 0.00 0.00 0.00 0.00 0.00 0.00 0.00 0.00 0.00
0.06 0.08 0.06 0.10 0.10 0.05 0.03 0.01 0.00 0.00 0.00 0.00 0.00 0.00 0.00 0.00 0.00 0.00 0.00 0.00 0.00 0.00 0.00 0.00 0.00 0.00 0.00 0.00 0.00 0.00 0.00 0.00 0.00 0.00 0.00 0.00 0.00 0.00 0.00 0.00 0.00 0.00 0.00 0.00 0.00 0.01 0.01 0.01 0.01
0.06 0.08 0.11 0.16 0.17 0.10 0.03 0.00 0.00 0.00 0.00 0.00 0.00 0.00 0.00 0.00 0.00 0.00 0.00 0.00 0.00 0.00 0.00 0.00 0.00 0.00 0.00 0.00 0.00 0.00 0.00 0.00 0.00 0.00 0.00 0.00 0.00 0.00 0.00 0.00 0.00 0.00 0.00 0.00 0.01 0.01 0.01 0.01 0.01
0.05 0.07 0.12 0.16 0.14 0.07 0.04 0.01 0.00 0.00 0.00 0.00 0.00 0.00 0.00 0.00 0.00 0.00 0.00 0.00 0.00 0.00 0.00 0.00 0.00 0.00 0.00 0.00 0.00 0.00 0.00 0.00 0.00 0.00 0.00 0.00 0.00 0.00 0.00 0.00 0.00 0.00 0.00 0.00 0.01 0.01 0.01 0.01 0.01
0.05 0.05 0.07 0.11 0.11 0.06 0.03 0.01 0.00 0.00 0.00 0.00 0.00 0.00 0.00 0.00 0.00 0.00 0.00 0.00 0.00 0.00 0.00 0.00 0.00 0.00 0.00 0.00 0.00 0.00 0.00 0.00 0.00 0.00 0.00 0.00 0.00 0.00 0.00 0.00 0.00 0.00 0.00 0.00 0.01 0.01 0.01 0.01 0.01
MSLP
1013.26 1013.62 1014.20 1014.92 1015.66 1016.33 1016.85 1017.19 1017.35 1017.37 1017.32 1017.27 1017.28 1017.37 1017.55 1017.79 1018.05 1018.30 1018.50 1018.66 1018.79 1018.92 1019.07 1019.27 1019.52 1019.80 1020.09 1020.35 1020.57 1020.74 1020.87 1020.98 1021.10 1021.25 1021.45 1021.69 1021.96 1022.22 1022.45 1022.63 1022.76 1022.85 1022.92 1022.99 1023.08 1023.20 1023.34 1023.47 1023.58
1013.71 1014.15 1014.78 1015.50 1016.18 1016.76 1017.15 1017.34 1017.34 1017.23 1017.07 1016.95 1016.92 1017.01 1017.21 1017.49 1017.80 1018.11 1018.38 1018.61 1018.80 1018.99 1019.19 1019.42 1019.69 1019.98 1020.26 1020.51 1020.72 1020.89 1021.02 1021.15 1021.31 1021.50 1021.74 1022.02 1022.32 1022.60 1022.83 1023.02 1023.15 1023.24 1023.33 1023.42 1023.54 1023.68 1023.82 1023.95 1024.03
1014.29 1014.78 1015.40 1016.05 1016.63 1017.06 1017.29 1017.33 1017.20 1016.98 1016.76 1016.62 1016.59 1016.71 1016.95 1017.27 1017.64 1017.98 1018.30 1018.56 1018.79 1019.01 1019.24 1019.50 1019.79 1020.10 1020.39 1020.66 1020.88 1021.06 1021.22 1021.38 1021.56 1021.79 1022.05 1022.34 1022.64 1022.92 1023.15 1023.33 1023.46 1023.57 1023.68 1023.81 1023.95 1024.11 1024.26 1024.38 1024.44
1014.96 1015.45 1016.01 1016.55 1016.98 1017.23 1017.30 1017.19 1016.96 1016.69 1016.46 1016.33 1016.36 1016.53 1016.82 1017.19 1017.58 1017.94 1018.26 1018.52 1018.75 1018.98 1019.23 1019.51 1019.83 1020.17 1020.50 1020.80 1021.06 1021.28 1021.47 1021.65 1021.86 1022.09 1022.35 1022.64 1022.92 1023.18 1023.39 1023.57 1023.71 1023.84 1023.98 1024.15 1024.33 1024.51 1024.67 1024.78 1024.80
1015.64 1016.09 1016.54 1016.94 1017.19 1017.28 1017.19 1016.97 1016.67 1016.39 1016.20 1016.14 1016.25 1016.50 1016.85 1017.25 1017.65 1017.99 1018.28 1018.51 1018.71 1018.92 1019.18 1019.48 1019.83 1020.21 1020.60 1020.95 1021.26 1021.52 1021.74 1021.95 1022.16 1022.39 1022.64 1022.90 1023.15 1023.38 1023.58 1023.75 1023.91 1024.07 1024.25 1024.45 1024.66 1024.87 1025.04 1025.13 1025.14
1016.26 1016.63 1016.95 1017.18 1017.26 1017.18 1016.97 1016.67 1016.37 1016.13 1016.01 1016.06 1016.27 1016.61 1017.02 1017.45 1017.84 1018.15 1018.38 1018.55 1018.71 1018.89 1019.13 1019.44 1019.82 1020.25 1020.68 1021.09 1021.45 1021.75 1022.01 1022.23 1022.44 1022.66 1022.89 1023.12 1023.34 1023.55 1023.74 1023.91 1024.08 1024.27 1024.48 1024.71 1024.96 1025.18 1025.35 1025.44 1025.43
1016.76 1017.02 1017.20 1017.26 1017.18 1016.97 1016.67 1016.34 1016.06 1015.89 1015.89 1016.06 1016.38 1016.82 1017.29 1017.74 1018.11 1018.38 1018.55 1018.66 1018.76 1018.90 1019.12 1019.43 1019.83 1020.29 1020.76 1021.21 1021.62 1021.95 1022.23 1022.47 1022.68 1022.88 1023.09 1023.30 1023.50 1023.70 1023.88 1024.06 1024.25 1024.46 1024.69 1024.94 1025.20 1025.43 1025.61 1025.69 1025.67
1017.12 1017.26 1017.30 1017.20 1016.98 1016.67 1016.32 1015.99 1015.75 1015.68 1015.79 1016.08 1016.52 1017.03 1017.56 1018.03 1018.39 1018.63 1018.75 1018.82 1018.87 1018.98 1019.17 1019.47 1019.87 1020.34 1020.83 1021.31 1021.73 1022.09 1022.38 1022.63 1022.84 1023.04 1023.25 1023.45 1023.65 1023.85 1024.04 1024.23 1024.42 1024.64 1024.88 1025.13 1025.39 1025.62 1025.78 1025.86 1025.85
1017.35 1017.38 1017.28 1017.05 1016.72 1016.34 1015.96 1015.65 1015.47 1015.48 1015.69 1016.07 1016.59 1017.17 1017.74 1018.23 1018.60 1018.82 1018.93 1018.98 1019.01 1019.09 1019.27 1019.55 1019.94 1020.40 1020.89 1021.35 1021.77 1022.13 1022.43 1022.68 1022.91 1023.12 1023.34 1023.56 1023.78 1023.99 1024.20 1024.40 1024.60 1024.81 1025.04 1025.28 1025.51 1025.72 1025.88 1025.96 1025.96
1017.49 1017.41 1017.19 1016.86 1016.46 1016.04 1015.65 1015.37 1015.23 1015.30 1015.56 1016.00 1016.56 1017.17 1017.76 1018.27 1018.65 1018.89 1019.02 1019.07 1019.12 1019.21 1019.38 1019.65 1020.02 1020.45 1020.90 1021.33 1021.73 1022.07 1022.37 1022.62 1022.87 1023.11 1023.36 1023.62 1023.88 1024.13 1024.36 1024.57 1024.77 1024.97 1025.17 1025.37 1025.57 1025.75 1025.90 1025.98 1026.00
1017.58 1017.40 1017.10 1016.71 1016.26 1015.82 1015.44 1015.18 1015.07 1015.15 1015.42 1015.85 1016.39 1016.99 1017.57 1018.08 1018.48 1018.77 1018.94 1019.06 1019.15 1019.27 1019.46 1019.72 1020.06 1020.45 1020.85 1021.24 1021.60 1021.91 1022.20 1022.46 1022.73 1023.00 1023.30 1023.61 1023.92 1024.21 1024.48 1024.71 1024.91 1025.08 1025.25 1025.41 1025.57 1025.72 1025.85 1025.94 1025.99
1017.64 1017.39 1017.04 1016.61 1016.16 1015.73 1015.37 1015.11 1015.00 1015.06 1015.27 1015.64 1016.11 1016.64 1017.18 1017.68 1018.10 1018.43 1018.68 1018.87 1019.05 1019.23 1019.45 1019.72 1020.03 1020.38 1020.73 1021.07 1021.38 1021.67 1021.93 1022.20 1022.49 1022.80 1023.14 1023.51 1023.87 1024.21 1024.51 1024.76 1024.96 1025.12 1025.26 1025.38 1025.51 1025.63 1025.75 1025.86 1025.94
1017.67 1017.38 1017.00 1016.58 1016.15 1015.76 1015.42 1015.18 1015.04 1015.03 1015.16 1015.41 1015.76 1016.18 1016.65 1017.11 1017.53 1017.91 1018.24 1018.52 1018.78 1019.04 1019.31 1019.60 1019.91 1020.23 1020.54 1020.83 1021.10 1021.36 1021.61 1021.87 1022.17 1022.51 1022.89 1023.29 1023.70 1024.08 1024.42 1024.70 1024.91 1025.06 1025.19 1025.29 1025.39 1025.50 1025.62 1025.75 1025.87
1017.62 1017.31 1016.95 1016.57 1016.20 1015.87 1015.58 1015.34 1015.17 1015.09 1015.09 1015.19 1015.39 1015.68 1016.03 1016.43 1016.84 1017.25 1017.64 1018.01 1018.36 1018.69 1019.02 1019.35 1019.67 1019.98 1020.27 1020.53 1020.78 1021.01 1021.24 1021.50 1021.80 1022.14 1022.54 1022.96 1023.39 1023.81 1024.17 1024.48 1024.71 1024.89 1025.01 1025.12 1025.22 1025.34 1025.47 1025.62 1025.77
1017.45 1017.16 1016.84 1016.53 1016.25 1015.99 1015.76 1015.54 1015.35 1015.18 1015.06 1015.01 1015.05 1015.18 1015.42 1015.73 1016.11 1016.53 1016.96 1017.39 1017.81 1018.21 1018.59 1018.96 1019.30 1019.63 1019.92 1020.19 1020.43 1020.65 1020.87 1021.12 1021.40 1021.73 1022.10 1022.52 1022.95 1023.37 1023.76 1024.10 1024.37 1024.58 1024.74 1024.88 1025.00 1025.14 1025.30 1025.47 1025.65
1017.13 1016.87 1016.62 1016.41 1016.22 1016.06 1015.90 1015.71 1015.50 1015.27 1015.04 1014.86 1014.75 1014.74 1014.85 1015.08 1015.41 1015.81 1016.25 1016.71 1017.17 1017.62 1018.04 1018.45 1018.83 1019.18 1019.50 1019.80 1020.06 1020.29 1020.51 1020.74 1020.99 1021.27 1021.61 1021.98 1022.39 1022.80 1023.20 1023.57 1023.88 1024.14 1024.36 1024.55 1024.73 1024.91 1025.09 1025.29 1025.48
1016.66 1016.46 1016.30 1016.18 1016.10 1016.03 1015.94 1015.79 1015.57 1015.29 1014.98 1014.69 1014.46 1014.34 1014.34 1014.49 1014.76 1015.12 1015.55 1016.01 1016.48 1016.94 1017.39 1017.82 1018.24 1018.64 1019.02 1019.35 1019.66 1019.92 1020.14 1020.35 1020.57 1020.80 1021.07 1021.38 1021.74 1022.13 1022.52 1022.91 1023.28 1023.61 1023.90 1024.15 1024.39 1024.61 1024.84 1025.05 1025.26
1016.10 1015.97 1015.90 1015.87 1015.89 1015.90 1015.86 1015.73 1015.50 1015.18 1014.82 1014.45 1014.14 1013.94 1013.87 1013.95 1014.17 1014.49 1014.88 1015.31 1015.75 1016.20 1016.65 1017.10 1017.56 1018.01 1018.44 1018.85 1019.21 1019.51 1019.76 1019.96 1020.13 1020.30 1020.50 1020.74 1021.03 1021.37 1021.76 1022.17 1022.58 1022.97 1023.34 1023.67 1023.97 1024.25 1024.50 1024.74 1024.95
1015.54 1015.49 1015.50 1015.56 1015.64 1015.70 1015.67 1015.54 1015.29 1014.93 1014.51 1014.10 1013.74 1013.49 1013.39 1013.43 1013.61 1013.88 1014.23 1014.61 1015.01 1015.43 1015.86 1016.31 1016.78 1017.27 1017.77 1018.25 1018.68 1019.04 1019.32 1019.52 1019.66 1019.78 1019.90 1020.06 1020.28 1020.58 1020.95 1021.37 1021.81 1022.26 1022.70 1023.10 1023.46 1023.78 1024.07 1024.32 1024.54
1015.07 1015.12 1015.21 1015.33 1015.43 1015.48 1015.43 1015.25 1014.94 1014.53 1014.06 1013.60 1013.22 1012.96 1012.85 1012.88 1013.04 1013.29 1013.59 1013.92 1014.27 1014.63 1015.02 1015.46 1015.94 1016.46 1017.01 1017.55 1018.05 1018.47 1018.79 1019.00 1019.13 1019.20 1019.26 1019.36 1019.52 1019.76 1020.10 1020.52 1020.99 1021.49 1021.97 1022.43 1022.84 1023.19 1023.50 1023.76 1023.98
1014.78 1014.94 1015.10 1015.24 1015.34 1015.34 1015.20 1014.92 1014.51 1014.01 1013.48 1012.99 1012.59 1012.34 1012.24 1012.29 1012.45 1012.69 1012.97 1013.25 1013.54 1013.85 1014.19 1014.58 1015.05 1015.58 1016.17 1016.75 1017.31 1017.78 1018.14 1018.38 1018.50 1018.55 1018.57 1018.61 1018.72 1018.93 1019.24 1019.65 1020.13 1020.64 1021.16 1021.64 1022.08 1022.46 1022.78 1023.05 1023.27
1014.67 1014.94 1015.17 1015.33 1015.38 1015.29 1015.03 1014.61 1014.07 1013.45 1012.84 1012.30 1011.89 1011.65 1011.58 1011.67 1011.86 1012.10 1012.37 1012.63 1012.87 1013.12 1013.40 1013.75 1014.18 1014.69 1015.27 1015.88 1016.46 1016.97 1017.36 1017.62 1017.75 1017.80 1017.80 1017.81 1017.89 1018.06 1018.34 1018.74 1019.21 1019.72 1020.24 1020.74 1021.18 1021.57 1021.89 1022.16 1022.38
1014.68 1015.07 1015.37 1015.54 1015.53 1015.33 1014.93 1014.35 1013.66 1012.91 1012.21 1011.62 1011.19 1010.97 1010.94 1011.06 1011.29 1011.57 1011.84 1012.09 1012.30 1012.50 1012.72 1013.00 1013.37 1013.84 1014.39 1014.97 1015.55 1016.06 1016.46 1016.74 1016.89 1016.94 1016.94 1016.94 1017.00 1017.15 1017.41 1017.78 1018.23 1018.72 1019.22 1019.71 1020.14 1020.52 1020.84 1021.11 1021.35
1014.68 1015.20 1015.57 1015.75 1015.70 1015.40 1014.86 1014.14 1013.31 1012.45 1011.66 1011.02 1010.58 1010.38 1010.38 1010.56 1010.83 1011.15 1011.44 1011.68 1011.87 1012.03 1012.20 1012.41 1012.70 1013.09 1013.56 1014.08 1014.61 1015.09 1015.48 1015.76 1015.91 1015.98 1015.99 1016.00 1016.06 1016.20 1016.43 1016.77 1017.18 1017.64 1018.12 1018.57 1018.98 1019.34 1019.66 1019.93 1020.18
1014.52 1015.17 1015.62 1015.82 1015.75 1015.39 1014.77 1013.94 1013.01 1012.07 1011.22 1010.56 1010.13 1009.95 1010.00 1010.22 1010.54 1010.90 1011.22 1011.47 1011.65 1011.77 1011.88 1012.01 1012.21 1012.49 1012.85 1013.27 1013.71 1014.13 1014.47 1014.72 1014.88 1014.95 1014.98 1015.00 1015.06 1015.19 1015.41 1015.72 1016.09 1016.50 1016.93 1017.35 1017.73 1018.07 1018.38 1018.66 1018.91
1014.10 1014.85 1015.38 1015.63 1015.57 1015.20 1014.55 1013.70 1012.73 1011.77 1010.93 1010.28 1009.88 1009.74 1009.83 1010.10 1010.47 1010.86 1011.21 1011.47 1011.64 1011.73 1011.78 1011.82 1011.91 1012.07 1012.30 1012.59 1012.91 1013.22 1013.49 1013.69 1013.82 1013.89 1013.93 1013.96 1014.03 1014.16 1014.36 1014.63 1014.96 1015.33 1015.71 1016.08 1016.43 1016.75 1017.05 1017.34 1017.61
1013.35 1014.18 1014.78 1015.09 1015.08 1014.74 1014.14 1013.33 1012.42 1011.52 1010.74 1010.16 1009.83 1009.75 1009.90 1010.21 1010.62 1011.04 1011.41 1011.68 1011.84 1011.90 1011.88 1011.85 1011.83 1011.85 1011.93 1012.07 1012.24 1012.42 1012.58 1012.71 1012.80 1012.85 1012.88 1012.92 1012.99 1013.11 1013.29 1013.53 1013.82 1014.14 1014.47 1014.80 1015.13 1015.43 1015.73 1016.02 1016.31
1012.33 1013.20 1013.84 1014.20 1014.25 1014.00 1013.49 1012.80 1012.03 1011.27 1010.62 1010.17 1009.94 1009.95 1010.17 1010.53 1010.97 1011.41 1011.79 1012.06 1012.20 1012.23 1012.16 1012.05 1011.91 1011.81 1011.74 1011.71 1011.72 1011.76 1011.81 1011.84 1011.86 1011.88 1011.89 1011.92 1011.98 1012.08 1012.23 1012.44 1012.68 1012.95 1013.25 1013.54 1013.84 1014.14 1014.44 1014.74 1015.05
1011.15 1011.99 1012.63 1013.02 1013.13 1012.98 1012.62 1012.10 1011.52 1010.96 1010.52 1010.24 1010.16 1010.29 1010.58 1011.00 1011.46 1011.91 1012.29 1012.54 1012.67 1012.66 1012.55 1012.36 1012.14 1011.91 1011.70 1011.52 1011.38 1011.28 1011.19 1011.12 1011.07 1011.02 1010.99 1010.99 1011.02 1011.09 1011.21 1011.37 1011.57 1011.79 1012.05 1012.32 1012.60 1012.89 1013.20 1013.51 1013.84
1010.00 1010.75 1011.33 1011.70 1011.85 1011.80 1011.58 1011.26 1010.90 1010.59 1010.38 1010.31 1010.41 1010.67 1011.06 1011.52 1012.01 1012.46 1012.83 1013.07 1013.17 1013.14 1012.99 1012.74 1012.44 1012.11 1011.79 1011.48 1011.20 1010.96 1010.75 1010.57 1010.42 1010.30 1010.21 1010.15 1010.13 1010.15 1010.22 1010.33 1010.47 1010.65 1010.87 1011.11 1011.38 1011.67 1011.99 1012.32 1012.66
Thickness
5747 5756 5761 5754 5734 5723 5719 5728 5737 5734 5736 5741 5742 5741 5736 5726 5717 5705 5722 5731 5727 5720 5714 5710 5707 5705 5702 5700 5698 5697 5696 5695 5694 5693 5692 5691 5690 5689 5688 5687 5687 5686 5685 5685 5684 5683 5682 5682 5682
5744 5753 5751 5740 5719 5707 5714 5729 5731 5732 5736 5740 5740 5740 5738 5727 5727 5723 5726 5728 5725 5720 5714 5710 5707 5704 5701 5699 5697 5696 5694 5693 5692 5691 5690 5689 5688 5687 5686 5685 5685 5684 5683 5683 5682 5681 5680 5679 5679
5743 5748 5734 5724 5715 5711 5715 5730 5731 5734 5739 5739 5736 5739 5734 5726 5727 5726 5728 5728 5724 5719 5714 5709 5706 5703 5701 5698 5696 5695 5693 5692 5691 5690 5689 5688 5687 5686 5685 5684 5683 5682 5681 5680 5679 5678 5677 5677 5677
5735 5733 5729 5715 5710 5725 5729 5733 5734 5730 5733 5737 5736 5730 5729 5731 5731 5730 5729 5727 5722 5718 5713 5708 5705 5702 5700 5697 5695 5693 5692 5690 5689 5688 5687 5686 5685 5684 5683 5682 5681 5680 5679 5678 5677 5676 5675 5675 5675
5728 5717 5707 5704 5713 5728 5735 5737 5736 5729 5729 5733 5734 5727 5720 5727 5731 5729 5727 5725 5720 5716 5711 5707 5704 5701 5699 5696 5694 5692 5691 5689 5688 5687 5686 5685 5684 5682 5681 5680 5679 5678 5677 5676 5675 5674 5673 5672 5672
5708 5708 5693 5694 5710 5725 5732 5737 5735 5731 5731 5732 5731 5727 5718 5726 5726 5725 5725 5722 5719 5715 5710 5705 5703 5700 5698 5696 5693 5691 5690 5688 5687 5686 5684 5683 5682 5681 5680 5679 5678 5676 5675 5674 5673 5672 5671 5670 5670
5694 5691 5688 5697 5705 5715 5727 5734 5730 5728 5728 5730 5735 5725 5717 5721 5724 5724 5722 5721 5718 5713 5709 5704 5702 5699 5697 5695 5693 5690 5688 5687 5685 5684 5683 5682 5680 5679 5678 5677 5676 5675 5674 5672 5671 5670 5669 5669 5669
5695 5688 5687 5694 5699 5709 5725 5729 5731 5728 5727 5736 5735 5723 5715 5720 5723 5721 5719 5718 5716 5712 5708 5705 5702 5699 5696 5694 5692 5689 5687 5686 5684 5682 5681 5680 5679 5677 5676 5675 5674 5673 5672 5671 5669 5668 5667 5667 5667
5689 5674 5676 5691 5698 5708 5721 5719 5725 5730 5728 5729 5730 5723 5725 5723 5720 5715 5713 5712 5711 5709 5708 5705 5703 5700 5697 5694 5691 5689 5686 5684 5683 5681 5680 5678 5677 5676 5675 5674 5673 5672 5670 5669 5668 5667 5666 5665 5665
5675 5665 5680 5697 5704 5707 5713 5714 5718 5717 5716 5718 5719 5719 5720 5717 5713 5710 5708 5707 5706 5705 5706 5705 5703 5701 5698 5695 5691 5688 5686 5684 5682 5680 5679 5678 5677 5676 5674 5673 5671 5670 5669 5667 5666 5665 5665 5664 5664
5672 5670 5684 5694 5701 5703 5704 5708 5715 5709 5706 5714 5716 5715 5714 5712 5710 5708 5707 5708 5707 5706 5705 5704 5703 5701 5698 5696 5692 5690 5687 5685 5683 5681 5679 5678 5677 5675 5674 5672 5670 5669 5667 5666 5665 5664 5664 5663 5663
5664 5673 5681 5687 5692 5693 5694 5699 5702 5705 5709 5720 5723 5721 5715 5709 5709 5709 5708 5708 5708 5707 5705 5704 5703 5701 5698 5696 5693 5691 5688 5686 5684 5682 5680 5678 5677 5675 5673 5671 5669 5668 5667 5666 5665 5664 5663 5663 5662
5655 5663 5673 5679 5683 5685 5687 5688 5693 5700 5711 5717 5719 5717 5714 5711 5710 5711 5711 5710 5709 5707 5706 5704 5703 5700 5698 5696 5693 5691 5689 5687 5685 5683 5681 5679 5677 5675 5674 5672 5670 5668 5667 5666 5665 5664 5663 5662 5661
5651 5657 5663 5669 5673 5677 5676 5681 5685 5697 5707 5709 5711 5711 5712 5712 5712 5711 5711 5710 5709 5708 5707 5705 5703 5700 5698 5696 5694 5692 5690 5688 5686 5684 5682 5679 5677 5675 5674 5672 5670 5669 5667 5666 5664 5663 5662 5661 5659
5642 5642 5649 5658 5664 5668 5668 5667 5680 5695 5700 5701 5705 5708 5711 5713 5714 5714 5714 5712 5712 5710 5708 5706 5703 5701 5698 5696 5694 5692 5690 5688 5686 5684 5682 5680 5678 5676 5674 5672 5670 5669 5667 5666 5664 5662 5661 5659 5658
5625 5624 5627 5648 5655 5659 5651 5654 5680 5694 5694 5695 5700 5704 5707 5712 5715 5717 5717 5716 5714 5712 5709 5707 5704 5701 5698 5696 5693 5692 5690 5688 5686 5684 5682 5680 5678 5676 5674 5672 5670 5668 5667 5665 5663 5661 5659 5657 5655
5608 5612 5621 5635 5651 5651 5646 5652 5675 5688 5689 5691 5696 5701 5705 5709 5714 5717 5719 5718 5716 5714 5711 5708 5705 5702 5699 5695 5693 5691 5689 5688 5686 5684 5682 5680 5678 5676 5674 5672 5670 5668 5666 5664 5662 5659 5657 5655 5653
5605 5610 5618 5627 5643 5643 5641 5649 5665 5677 5682 5686 5691 5697 5702 5706 5711 5717 5719 5719 5718 5716 5713 5709 5706 5702 5698 5695 5692 5689 5688 5687 5686 5685 5683 5681 5679 5677 5675 5672 5670 5668 5665 5663 5661 5658 5656 5654 5651
5607 5610 5614 5626 5638 5634 5635 5643 5656 5668 5673 5678 5685 5691 5697 5704 5711 5715 5717 5718 5716 5714 5712 5709 5705 5702 5698 5695 5692 5689 5688 5687 5687 5686 5684 5682 5680 5677 5675 5672 5670 5667 5665 5663 5660 5657 5654 5651 5649
5594 5597 5606 5616 5627 5625 5625 5635 5651 5662 5668 5675 5681 5687 5693 5699 5705 5710 5713 5714 5713 5712 5711 5708 5706 5703 5700 5698 5695 5692 5689 5688 5687 5686 5684 5683 5680 5678 5675 5673 5670 5668 5665 5662 5659 5656 5653 5650 5647
5585 5591 5598 5601 5609 5613 5610 5617 5637 5654 5664 5672 5680 5686 5692 5696 5699 5703 5706 5709 5710 5710 5709 5708 5706 5704 5701 5698 5693 5690 5687 5687 5686 5686 5685 5684 5681 5679 5676 5674 5671 5668 5665 5663 5660 5657 5653 5649 5646
5579 5592 5591 5590 5586 5588 5594 5594 5630 5645 5654 5666 5674 5680 5687 5693 5697 5700 5702 5704 5706 5708 5709 5707 5705 5703 5700 5697 5693 5690 5689 5689 5691 5689 5687 5685 5682 5679 5677 5674 5671 5668 5666 5663 5660 5657 5653 5648 5645
5578 5585 5582 5580 5575 5574 5583 5582 5612 5639 5647 5662 5672 5678 5685 5690 5693 5695 5698 5701 5703 5705 5705 5704 5702 5700 5699 5696 5694 5691 5690 5691 5690 5687 5685 5684 5682 5679 5676 5674 5671 5668 5666 5664 5660 5657 5653 5650 5646
5571 5568 5567 5566 5560 5559 5578 5574 5598 5628 5646 5658 5669 5676 5680 5684 5687 5690 5694 5695 5696 5698 5698 5699 5698 5697 5696 5694 5693 5691 5690 5689 5687 5686 5685 5684 5682 5679 5677 5674 5671 5668 5666 5664 5661 5657 5653 5650 5646
5557 5551 5544 5544 5546 5558 5581 5574 5600 5635 5651 5657 5663 5668 5673 5676 5678 5680 5683 5685 5687 5689 5690 5691 5691 5691 5692 5691 5690 5690 5689 5687 5686 5686 5684 5683 5681 5680 5679 5674 5671 5669 5666 5663 5659 5655 5652 5649 5645
5554 5550 5544 5544 5549 5559 5568 5573 5608 5636 5645 5652 5657 5661 5664 5666 5668 5671 5674 5676 5678 5680 5681 5682 5683 5684 5685 5685 5686 5686 5686 5684 5684 5684 5683 5682 5682 5681 5679 5674 5671 5668 5664 5660 5656 5653 5650 5647 5643
5546 5544 5553 5544 5541 5542 5557 5582 5607 5625 5632 5638 5643 5646 5649 5652 5656 5659 5663 5665 5667 5669 5671 5673 5674 5675 5677 5678 5678 5679 5680 5680 5680 5680 5679 5678 5679 5678 5676 5673 5669 5666 5661 5657 5653 5650 5648 5644 5642
5546 5546 5537 5532 5533 5536 5549 5565 5589 5610 5617 5624 5628 5631 5635 5639 5642 5646 5649 5652 5654 5657 5660 5662 5664 5666 5668 5669 5669 5671 5672 5673 5674 5673 5673 5674 5674 5672 5671 5669 5666 5663 5659 5654 5649 5647 5644 5640 5639
5534 5533 5533 5531 5530 5534 5540 5564 5605 5610 5614 5615 5618 5621 5624 5626 5628 5631 5634 5637 5640 5643 5645 5648 5651 5653 5655 5657 5659 5661 5663 5664 5665 5666 5667 5667 5667 5666 5664 5663 5661 5659 5655 5651 5646 5643 5640 5637 5634
5535 5536 5532 5526 5526 5533 5538 5557 5601 5603 5605 5604 5604 5607 5610 5613 5615 5617 5619 5621 5624 5627 5630 5633 5637 5640 5643 5646 5648 5650 5652 5653 5655 5657 5659 5659 5659 5659 5658 5656 5655 5653 5651 5647 5643 5640 5636 5633 5630